Precipitable_Water
1.92 1.85 1.73 1.37 0.59 0.66 0.54 0.65 0.92 0.85 0.94 1.29 1.45 1.37 1.31 1.38 1.33 1.28 2.23 2.37 2.42 2.41 2.49 2.44 2.28 2.19 2.09 1.98 1.90 1.81 1.72 1.68 1.71 1.79 1.81 1.80 1.76 1.69 1.55 1.72 1.65 1.51 1.55 1.44 1.37 1.40 1.40 1.51 1.52
1.87 1.65 1.38 0.89 0.45 0.38 0.46 0.72 0.68 0.86 1.05 1.23 1.31 1.33 1.26 1.24 1.72 1.86 1.98 2.31 2.38 2.38 2.41 2.30 2.13 2.00 1.90 1.81 1.73 1.77 1.83 1.90 1.91 1.89 1.88 1.82 1.61 1.49 1.50 1.45 1.39 1.43 1.53 1.40 1.32 1.39 1.44 1.49 1.56
1.77 1.64 1.03 0.66 0.49 0.37 0.42 0.68 0.78 0.93 1.09 1.08 1.08 1.34 1.32 1.39 1.80 1.92 2.20 2.29 2.34 2.31 2.28 2.19 2.06 1.95 1.87 1.76 1.77 1.86 1.85 1.88 1.89 1.87 1.82 1.79 1.49 1.29 1.37 1.41 1.41 1.56 1.47 1.44 1.49 1.59 1.67 1.72 1.87
1.53 1.39 1.08 0.63 0.55 0.67 0.63 0.72 0.87 0.92 1.02 1.15 1.18 1.07 1.54 1.91 1.85 2.07 2.23 2.31 2.29 2.25 2.20 2.16 2.08 2.01 1.92 1.82 1.85 1.90 1.90 1.90 1.93 1.89 1.79 1.48 1.33 1.40 1.64 1.77 1.57 1.59 1.54 1.51 1.59 1.57 1.58 1.75 1.83
1.44 1.07 0.69 0.61 0.67 0.75 0.81 0.87 0.89 0.88 0.98 1.14 1.26 1.13 1.35 1.84 2.04 2.10 2.14 2.19 2.19 2.19 2.24 2.17 2.09 2.00 1.91 1.93 1.95 1.98 1.96 1.98 1.98 1.92 1.69 1.45 1.34 1.44 1.58 1.44 1.50 1.53 1.45 1.44 1.57 1.61 1.62 1.59 1.63
0.94 0.93 0.62 0.54 0.63 0.76 0.85 0.92 0.86 0.91 1.05 1.15 1.25 1.27 1.40 1.90 1.93 2.04 2.11 2.09 2.19 2.17 2.18 2.11 2.14 2.10 1.94 1.92 1.95 1.94 1.92 1.88 1.92 1.93 1.83 1.69 1.55 1.42 1.48 1.57 1.63 1.63 1.49 1.44 1.43 1.60 1.57 1.57 1.62
0.88 0.75 0.64 0.63 0.65 0.71 0.76 0.98 0.80 0.87 0.95 1.03 1.31 1.11 1.42 1.68 1.93 2.00 2.03 2.07 2.09 2.17 2.12 2.20 2.17 2.11 2.11 2.14 2.14 2.10 2.01 1.80 1.63 1.54 1.60 1.68 1.59 1.52 1.58 1.70 1.67 1.62 1.55 1.50 1.44 1.44 1.51 1.63 1.71
0.95 0.81 0.65 0.67 0.63 0.63 0.84 0.91 1.00 0.91 0.92 1.28 1.34 1.04 1.14 1.61 1.88 1.95 1.97 1.99 2.04 2.08 2.16 2.15 2.17 2.12 2.05 2.04 2.05 2.02 1.92 1.82 1.80 1.76 1.68 1.53 1.48 1.55 1.55 1.61 1.67 1.63 1.57 1.48 1.45 1.40 1.45 1.57 1.65
0.97 0.62 0.56 0.62 0.62 0.64 0.85 0.73 1.00 1.09 1.02 1.17 1.28 1.29 1.50 1.68 1.81 1.78 1.82 1.84 1.91 2.02 2.10 2.05 2.03 2.04 1.97 2.02 2.05 2.06 2.02 1.94 1.93 1.90 1.90 1.81 1.75 1.65 1.52 1.47 1.44 1.40 1.43 1.46 1.45 1.47 1.48 1.56 1.60
0.65 0.59 0.60 0.75 0.78 0.67 0.75 0.76 0.83 0.84 0.87 0.98 1.14 1.39 1.56 1.64 1.63 1.59 1.59 1.62 1.68 1.77 1.89 1.93 1.95 1.92 1.91 1.88 1.96 2.01 2.04 2.04 2.02 1.99 1.98 1.98 1.95 1.90 1.88 1.91 1.83 1.71 1.68 1.70 1.66 1.74 1.70 1.71 1.70
0.67 0.58 0.69 0.77 0.85 0.81 0.67 0.66 0.83 0.75 0.67 0.87 0.91 1.11 1.33 1.42 1.49 1.51 1.58 1.63 1.61 1.66 1.75 1.82 1.76 1.81 1.77 1.73 1.82 2.02 2.12 2.13 2.08 2.05 2.05 2.07 2.06 2.02 1.97 1.98 2.07 1.95 1.90 1.74 1.72 1.72 1.72 1.66 1.72
0.57 0.69 0.76 0.88 0.90 0.77 0.57 0.67 0.65 0.73 0.77 1.01 1.10 1.19 1.22 1.28 1.37 1.45 1.52 1.61 1.64 1.61 1.67 1.71 1.73 1.74 1.70 1.70 1.72 1.88 1.98 2.04 1.98 1.99 2.03 1.99 1.93 1.96 2.02 2.04 2.03 2.02 2.02 1.94 1.94 1.80 1.79 1.78 1.79
0.61 0.71 0.83 0.93 0.90 0.77 0.69 0.57 0.57 0.70 0.96 1.10 1.13 1.16 1.18 1.26 1.36 1.48 1.55 1.60 1.53 1.46 1.60 1.64 1.68 1.59 1.64 1.62 1.74 1.83 1.81 1.87 1.87 1.93 2.05 2.06 2.01 1.95 1.98 1.99 1.99 2.00 2.04 2.02 1.98 2.00 1.93 1.83 1.77
0.66 0.79 0.84 0.92 0.86 0.82 0.63 0.66 0.70 0.77 0.97 0.98 1.02 1.04 1.12 1.19 1.30 1.40 1.46 1.45 1.48 1.50 1.53 1.68 1.67 1.59 1.66 1.64 1.69 1.65 1.71 1.79 1.89 1.96 2.04 2.09 2.05 2.03 1.98 1.92 1.83 1.79 1.83 1.85 1.92 1.88 1.86 1.86 1.79
0.77 0.70 0.84 0.86 0.85 0.84 0.83 0.61 0.62 0.85 0.90 0.85 0.91 0.99 1.05 1.11 1.21 1.22 1.30 1.31 1.42 1.46 1.51 1.57 1.61 1.58 1.57 1.53 1.55 1.57 1.65 1.77 1.85 1.95 2.00 1.98 1.99 1.95 1.85 1.75 1.65 1.58 1.61 1.71 1.91 1.94 1.84 1.74 1.78
0.69 0.75 0.59 0.79 0.81 0.91 0.84 0.48 0.74 0.94 0.84 0.77 0.82 0.87 0.93 1.00 1.07 1.20 1.29 1.32 1.34 1.35 1.35 1.41 1.45 1.40 1.38 1.40 1.41 1.46 1.49 1.50 1.57 1.74 1.85 1.92 1.94 1.94 1.84 1.81 1.73 1.75 1.84 1.93 1.80 1.78 1.46 1.39 1.51
0.62 0.50 0.54 0.64 0.83 0.82 0.83 0.59 0.78 0.98 0.87 0.76 0.81 0.83 0.85 0.89 0.99 1.08 1.17 1.22 1.26 1.31 1.35 1.32 1.34 1.34 1.33 1.35 1.37 1.40 1.41 1.40 1.49 1.65 1.76 1.86 1.87 2.04 2.06 1.89 1.91 2.00 1.86 1.77 1.54 1.46 1.37 1.45 1.57
0.41 0.48 0.52 0.55 0.68 0.72 0.72 0.68 0.80 0.91 0.92 0.74 0.78 0.85 0.88 0.83 0.85 1.00 1.07 1.14 1.20 1.23 1.28 1.28 1.27 1.26 1.28 1.28 1.32 1.34 1.35 1.40 1.52 1.67 1.80 1.84 1.87 1.97 1.85 1.83 1.88 1.91 1.90 1.82 1.29 1.19 1.26 1.13 1.15
0.45 0.44 0.47 0.54 0.65 0.61 0.57 0.67 0.80 0.86 0.93 0.86 0.83 0.83 0.86 0.86 0.96 1.02 1.05 1.09 1.11 1.14 1.17 1.21 1.16 1.15 1.14 1.11 1.14 1.17 1.17 1.29 1.47 1.64 1.79 2.04 1.86 1.80 1.57 1.65 1.71 1.67 1.66 1.39 1.34 1.24 1.16 1.08 1.14
0.40 0.37 0.38 0.41 0.46 0.55 0.56 0.58 0.79 0.86 0.83 0.91 0.87 0.87 0.88 0.91 0.97 1.02 1.08 1.16 1.16 1.15 1.17 1.20 1.17 1.16 1.15 1.17 1.19 1.19 1.22 1.30 1.43 1.66 1.73 1.80 1.58 1.53 1.60 1.56 1.49 1.33 1.16 1.15 1.19 1.26 1.17 1.17 1.23
0.38 0.38 0.36 0.32 0.43 0.55 0.53 0.51 0.65 0.82 0.92 0.94 0.97 0.98 0.95 0.92 0.91 1.00 1.06 1.12 1.21 1.19 1.14 1.11 1.11 1.14 1.12 1.14 1.17 1.20 1.26 1.36 1.46 1.58 1.66 1.62 1.55 1.51 1.49 1.36 1.23 1.15 1.14 1.11 1.19 1.23 1.23 1.12 1.19
0.35 0.36 0.34 0.36 0.39 0.35 0.57 0.33 0.51 0.67 0.74 0.83 0.87 0.90 0.93 0.96 1.01 1.04 1.04 1.12 1.20 1.28 1.32 1.26 1.28 1.21 1.23 1.27 1.33 1.33 1.20 1.20 1.33 1.38 1.51 1.58 1.56 1.55 1.51 1.38 1.23 1.20 1.24 1.24 1.33 1.48 1.55 1.50 1.28
0.33 0.32 0.35 0.38 0.40 0.42 0.45 0.39 0.41 0.59 0.57 0.65 0.77 0.83 0.89 0.92 1.00 1.01 1.07 1.11 1.21 1.29 1.27 1.36 1.44 1.46 1.41 1.37 1.40 1.41 1.42 1.41 1.55 1.61 1.50 1.46 1.63 1.64 1.61 1.55 1.52 1.44 1.48 1.59 1.63 1.67 1.75 1.71 1.52
0.31 0.32 0.39 0.41 0.39 0.29 0.37 0.39 0.32 0.42 0.44 0.54 0.72 0.78 0.82 0.91 1.00 1.04 1.08 1.20 1.23 1.37 1.40 1.42 1.48 1.50 1.50 1.46 1.38 1.36 1.40 1.41 1.45 1.55 1.40 1.39 1.50 1.59 1.60 1.60 1.57 1.59 1.61 1.64 1.66 1.71 1.73 1.68 1.59
0.31 0.29 0.26 0.26 0.26 0.22 0.33 0.35 0.33 0.40 0.49 0.53 0.55 0.69 0.78 0.89 0.98 1.04 1.07 1.14 1.25 1.31 1.35 1.37 1.40 1.47 1.56 1.48 1.42 1.43 1.46 1.52 1.48 1.59 1.52 1.33 1.40 1.48 1.61 1.64 1.62 1.67 1.66 1.64 1.67 1.72 1.78 1.68 1.50
0.28 0.30 0.26 0.20 0.20 0.23 0.32 0.29 0.31 0.44 0.51 0.58 0.61 0.66 0.79 0.83 0.94 1.01 1.12 1.17 1.19 1.23 1.33 1.31 1.34 1.27 1.52 1.56 1.48 1.51 1.53 1.60 1.55 1.61 1.69 1.68 1.63 1.52 1.65 1.78 1.72 1.62 1.59 1.64 1.68 1.67 1.63 1.55 1.52
0.29 0.28 0.35 0.28 0.29 0.24 0.26 0.29 0.38 0.51 0.54 0.55 0.55 0.65 0.72 0.79 0.84 0.94 1.08 1.15 1.21 1.30 1.36 1.31 1.24 1.30 1.34 1.46 1.58 1.51 1.50 1.59 1.53 1.64 1.58 1.58 1.62 1.78 1.76 1.68 1.66 1.60 1.61 1.66 1.68 1.58 1.54 1.58 1.56
0.29 0.36 0.28 0.28 0.20 0.18 0.23 0.26 0.28 0.39 0.44 0.52 0.55 0.62 0.70 0.78 0.81 0.91 1.00 1.05 1.15 1.30 1.40 1.41 1.39 1.27 1.35 1.46 1.49 1.53 1.52 1.53 1.67 1.61 1.50 1.40 1.57 1.71 1.69 1.62 1.55 1.51 1.50 1.46 1.45 1.45 1.50 1.49 1.53
0.26 0.28 0.31 0.30 0.27 0.21 0.19 0.24 0.41 0.40 0.50 0.51 0.58 0.62 0.68 0.73 0.77 0.85 0.94 1.01 1.12 1.25 1.32 1.39 1.44 1.43 1.42 1.44 1.45 1.50 1.43 1.50 1.63 1.58 1.54 1.46 1.48 1.60 1.54 1.52 1.50 1.44 1.51 1.52 1.49 1.49 1.51 1.50 1.47
0.26 0.26 0.30 0.25 0.23 0.27 0.25 0.23 0.45 0.47 0.53 0.59 0.59 0.65 0.71 0.76 0.80 0.86 0.90 0.98 1.06 1.15 1.25 1.33 1.39 1.45 1.51 1.56 1.53 1.54 1.66 1.69 1.56 1.56 1.50 1.45 1.41 1.45 1.49 1.53 1.46 1.46 1.55 1.54 1.47 1.44 1.44 1.32 1.26
Wind_Speed
9 9 7 7 7 8 6 5 5 5 5 4 5 6 7 5 6 9 13 15 16 16 16 17 18 17 18 18 18 17 17 16 15 14 14 13 13 13 12 12 12 12 12 13 13 13 13 14 14
11 11 10 9 9 8 6 6 5 5 8 8 7 6 6 6 6 13 13 16 16 16 15 17 17 17 17 17 16 16 15 14 14 13 13 12 11 11 11 11 11 11 11 12 12 12 12 13 13
11 11 11 10 10 8 7 7 7 8 5 4 6 6 6 7 12 11 14 16 16 15 16 17 17 16 16 15 15 14 14 13 12 12 11 11 10 10 10 10 10 10 10 11 11 11 11 11 11
9 10 11 12 11 11 8 9 8 8 7 7 8 8 8 8 8 11 15 15 16 15 15 16 16 15 15 14 13 13 12 12 11 10 10 9 9 10 10 10 10 9 9 9 9 9 9 9 9
9 10 12 12 11 11 12 11 8 8 8 8 7 8 8 8 12 14 15 15 15 13 15 14 15 14 13 13 13 12 11 10 10 9 8 8 9 9 8 9 9 8 8 7 7 7 7 7 7
8 9 12 11 12 12 12 12 11 11 11 11 11 9 9 11 13 13 13 13 13 14 14 15 14 14 13 13 12 11 10 9 9 8 8 8 7 7 7 7 7 6 6 5 4 4 4 4 5
9 9 9 11 11 11 11 12 13 12 10 9 9 8 8 10 12 12 12 12 14 15 15 14 14 14 13 12 10 9 8 9 7 8 8 7 7 6 6 5 4 4 3 3 2 2 2 2 3
5 7 8 10 10 11 11 11 12 12 11 10 8 6 8 10 12 12 11 13 14 15 14 14 14 13 12 11 10 9 10 9 8 8 8 7 6 5 4 3 2 1 0 0 0 0 0 1 1
5 7 8 9 10 11 11 11 12 13 12 9 8 10 12 12 12 11 12 12 13 14 14 14 14 12 11 10 10 9 9 9 9 8 7 6 5 4 3 2 1 0 1 2 2 2 2 3 3
6 8 6 8 9 11 11 11 11 11 12 12 13 14 13 12 11 11 12 12 12 13 15 14 14 13 11 10 9 8 9 7 7 6 5 4 3 3 2 1 1 2 3 3 4 4 4 5 6
6 8 7 8 11 13 12 11 10 13 12 11 14 13 12 11 11 11 11 11 12 13 15 16 14 12 10 9 9 9 7 6 5 5 4 3 2 1 1 2 3 4 4 5 5 6 7 8 9
7 6 8 10 11 12 12 12 12 10 11 13 14 13 12 11 11 11 11 12 12 13 14 14 13 11 10 9 9 7 5 5 5 4 3 2 1 2 3 4 5 5 6 6 7 8 10 11 12
6 8 9 12 12 13 15 15 12 13 14 14 14 13 12 11 11 11 11 10 11 13 13 13 12 11 10 9 8 6 6 5 4 3 2 2 3 4 5 5 6 7 7 7 7 8 9 10 10
9 13 14 12 12 12 13 14 12 12 13 13 13 12 12 12 12 12 11 10 10 11 12 12 12 11 10 9 8 7 6 5 2 1 1 3 4 5 5 6 7 7 6 6 7 8 10 10 10
12 13 12 11 11 10 14 12 13 13 13 12 11 11 12 11 11 11 10 10 10 10 11 12 12 11 10 9 8 7 5 3 1 2 4 4 6 7 7 6 6 6 6 7 8 9 11 11 9
10 10 9 7 9 8 7 9 10 11 12 11 11 10 10 11 11 10 11 10 10 11 12 12 12 11 10 9 7 6 4 2 2 3 4 6 8 8 7 6 6 6 6 5 8 9 9 10 10
7 8 7 6 7 5 5 6 7 8 9 9 9 9 9 10 10 10 10 10 10 11 11 11 11 11 9 8 7 5 3 2 3 4 6 8 8 8 8 8 8 7 6 7 9 9 9 10 11
9 7 6 6 6 3 4 1 6 7 6 7 8 8 8 9 9 9 9 10 10 10 10 10 10 9 8 7 6 5 4 4 5 7 7 7 8 9 9 9 8 9 9 8 8 8 8 8 9
9 7 7 4 3 4 5 4 6 7 6 5 7 7 8 7 8 8 9 9 9 9 9 8 9 8 7 6 5 4 5 5 6 7 7 9 9 9 10 10 10 9 7 6 6 7 8 9 10
10 7 6 4 5 7 6 5 6 9 7 6 6 6 6 6 7 8 8 9 8 8 7 6 6 6 6 6 6 6 6 7 8 8 9 9 10 11 10 8 6 6 6 6 7 8 9 10 12
11 8 6 5 4 4 6 3 7 7 8 6 6 5 5 6 6 7 7 7 7 6 5 4 4 4 4 4 5 6 8 9 10 11 10 10 11 10 9 7 6 6 6 8 9 10 11 12 14
10 9 7 7 8 7 7 3 5 8 9 8 9 8 7 8 7 6 7 7 6 5 4 4 3 3 3 3 4 7 9 8 11 12 13 12 11 11 10 9 9 9 9 10 12 13 14 15 18
11 4 4 7 8 8 6 4 4 7 8 11 11 10 9 10 9 8 7 7 7 6 5 5 4 3 4 5 7 9 9 11 12 16 15 14 13 13 12 12 12 13 14 16 17 18 19 21 24
9 5 2 4 7 5 9 8 4 5 9 10 12 12 11 10 10 8 8 7 7 6 5 4 4 3 5 6 7 8 8 10 14 15 13 14 14 14 14 14 16 17 19 21 22 23 24 27 29
10 6 4 3 5 8 7 6 10 7 9 10 12 14 12 12 11 10 9 8 8 8 7 6 7 7 8 9 9 10 11 12 13 13 13 16 16 17 17 18 19 19 22 24 25 26 28 31 30
14 13 9 8 8 7 4 7 7 5 8 10 11 14 12 11 12 12 10 11 11 10 9 8 10 10 9 10 11 12 13 14 15 15 17 17 18 20 21 22 22 23 26 26 27 29 31 33 33
15 13 12 7 6 6 7 7 7 4 4 6 11 10 11 11 11 11 10 11 12 11 11 11 12 13 12 13 13 14 15 16 17 18 18 18 18 21 23 24 23 26 28 29 32 33 35 36 37
17 16 12 10 9 10 9 8 8 5 4 2 8 10 10 9 9 8 10 11 12 13 14 13 13 14 15 15 16 16 18 19 20 20 20 21 22 23 25 25 27 28 31 32 34 37 38 38 38
17 17 12 11 11 10 9 11 9 9 8 8 8 9 9 8 7 7 8 10 12 13 14 15 15 16 16 17 18 19 20 21 22 22 23 24 25 27 27 28 29 31 33 34 36 37 38 38 39
20 21 18 16 15 12 10 13 11 10 9 8 10 9 8 7 7 6 6 6 8 9 11 14 15 16 18 18 19 20 21 21 23 24 25 26 28 29 31 31 33 34 35 36 36 37 37 39 41
Wind_Direction
91 82 74 69 68 72 70 70 90 98 99 110 109 113 107 86 98 120 131 137 135 131 126 123 123 122 121 120 119 118 116 116 114 113 110 108 107 104 104 101 99 95 93 91 90 89 87 86 85
91 77 68 70 75 69 63 63 73 95 116 111 105 112 99 99 106 128 134 141 140 135 131 127 126 124 123 122 121 120 118 117 115 113 111 110 108 107 105 103 101 99 96 94 93 92 90 88 87
90 72 63 69 73 80 76 71 84 112 124 99 116 107 111 110 119 130 138 145 144 138 138 132 129 127 126 125 124 122 121 118 116 115 113 111 108 108 106 105 104 101 98 97 96 94 92 90 88
86 73 65 68 65 64 72 74 90 96 89 94 113 106 113 118 129 133 139 142 145 142 143 139 136 131 129 128 127 126 126 123 118 117 116 112 112 112 109 105 105 104 101 101 100 95 92 87 85
79 73 65 65 64 66 66 76 68 82 89 90 105 109 111 121 128 134 139 144 149 149 149 145 144 138 133 131 128 128 128 127 121 119 118 117 117 117 112 108 107 104 102 101 100 96 92 86 80
74 78 67 67 70 71 65 65 70 81 95 97 100 106 105 121 130 139 145 148 151 150 148 146 149 140 136 133 129 128 125 123 122 121 123 120 120 119 117 115 109 106 100 97 98 96 90 82 76
73 78 76 72 71 67 70 75 73 79 85 87 110 104 118 124 132 140 145 148 150 152 149 150 144 140 138 133 132 129 126 123 118 123 124 121 120 123 123 124 120 111 99 96 95 89 84 76 62
80 79 77 66 69 59 75 75 72 72 79 92 103 106 127 136 137 142 145 148 152 154 153 152 147 141 134 136 132 123 122 120 116 117 117 117 121 122 124 129 129 110 125 119 62 298 316 340 342
93 82 95 73 74 68 78 74 64 71 83 76 78 106 119 129 136 141 144 146 152 156 159 156 154 148 138 137 132 130 127 119 118 116 116 114 112 116 115 114 121 281 296 285 277 283 289 292 302
98 100 105 86 80 72 76 75 78 74 76 82 89 101 117 123 131 138 150 155 155 159 163 159 158 154 146 140 139 136 137 126 124 120 119 116 112 105 91 44 338 301 299 297 290 288 289 289 293
113 122 102 86 79 81 71 75 76 86 75 86 103 106 113 121 129 136 143 154 158 162 163 163 163 161 159 153 148 142 143 132 129 125 118 108 102 61 350 328 316 317 312 303 300 297 291 289 289
111 124 110 97 88 77 69 81 83 70 80 96 100 103 106 118 128 135 135 142 152 158 161 164 166 167 163 158 154 153 149 156 141 115 111 91 33 346 322 314 312 312 312 305 306 305 301 291 286
120 109 107 108 93 82 78 73 78 81 93 96 100 100 103 110 122 126 132 135 150 160 164 167 169 165 162 161 156 153 153 147 142 131 79 40 348 332 319 315 314 314 310 306 309 311 313 306 294
122 110 113 109 101 90 81 76 67 84 98 100 103 102 101 108 117 120 127 130 142 157 163 165 168 168 167 166 161 150 142 140 142 149 323 344 342 332 330 320 316 314 314 316 314 319 320 313 300
126 113 109 109 107 90 94 63 72 92 99 104 105 106 105 108 113 119 122 124 133 146 157 161 163 165 164 160 161 164 165 175 230 287 310 315 325 316 313 323 333 326 322 319 314 310 320 319 312
128 127 117 133 117 111 67 72 80 94 100 102 106 109 109 110 114 115 117 118 124 134 148 153 155 158 159 161 168 175 180 195 273 307 309 312 319 318 308 306 320 329 328 327 338 330 328 336 319
137 145 140 139 154 120 75 85 100 105 97 107 108 108 112 113 116 118 122 122 122 129 140 151 156 158 161 165 170 176 190 234 291 313 312 307 313 314 314 299 296 299 303 312 319 328 327 330 337
171 149 159 160 178 160 151 134 130 130 115 109 117 114 116 117 126 123 125 126 127 130 139 149 158 165 167 171 182 197 228 271 286 302 310 315 314 314 314 302 291 290 297 298 329 330 337 341 343
164 168 182 192 190 177 191 171 173 160 152 127 123 120 121 127 127 129 133 133 133 135 138 150 163 171 176 184 197 222 258 281 291 299 301 312 316 313 315 308 292 290 294 296 306 324 333 335 337
186 186 225 261 224 198 187 189 181 181 182 170 152 142 140 135 134 138 138 139 139 140 143 147 163 181 199 212 231 252 274 287 295 301 298 307 315 316 315 312 306 292 286 294 305 314 320 326 329
206 213 224 232 196 178 162 192 182 195 201 197 195 182 172 166 157 152 154 157 153 152 155 159 172 187 206 226 253 269 276 285 293 296 298 302 307 311 311 306 304 298 295 299 303 307 310 316 320
215 214 240 200 185 185 181 186 193 197 206 211 209 200 198 189 183 176 175 176 175 174 174 179 196 211 222 242 276 284 275 285 295 291 291 293 296 299 300 293 291 290 293 294 298 300 301 306 311
207 213 233 199 180 172 193 175 211 179 213 222 220 213 210 202 197 193 190 188 192 203 207 212 240 232 242 265 279 308 280 278 307 301 282 284 286 290 289 285 287 286 287 290 294 298 297 300 305
199 196 142 158 175 199 199 185 240 203 226 234 221 218 211 208 205 207 208 206 207 215 223 233 220 244 280 275 285 293 306 301 303 308 288 284 283 289 286 284 285 286 287 286 292 294 295 300 303
198 190 196 185 194 195 194 194 234 241 248 232 216 214 211 212 213 218 215 216 219 225 235 237 237 256 299 283 285 290 296 305 309 321 301 285 282 280 285 285 287 289 294 291 289 292 295 300 300
206 202 195 200 198 200 196 209 236 255 262 242 222 214 217 216 221 225 223 225 227 232 238 245 251 264 281 296 286 290 293 304 307 308 305 300 289 280 282 286 283 288 292 293 291 292 294 298 297
212 212 211 200 231 212 220 245 268 266 299 219 201 203 210 215 222 229 231 229 229 238 244 251 258 262 279 290 289 289 287 300 304 302 304 305 301 293 287 283 286 290 292 290 291 294 295 297 298
217 210 218 231 215 230 241 241 233 296 284 243 196 205 213 220 230 234 236 233 238 242 248 257 265 268 276 288 290 291 290 291 299 301 300 299 301 298 294 287 287 290 295 294 295 294 294 295 296
217 221 225 221 225 223 238 246 237 258 256 231 220 215 215 222 228 237 243 243 244 249 253 259 269 275 279 286 290 294 294 292 297 299 298 298 298 300 295 290 290 292 294 296 296 296 295 295 296
222 222 223 225 234 238 237 251 250 257 244 228 226 229 229 227 230 242 247 245 246 253 259 266 274 279 282 286 291 297 295 294 297 299 298 298 300 300 299 292 291 292 292 297 297 297 297 297 298